Location: *
(32.3758°S, 63.1185°E)
Time: 00:11:29
(UTC+00:00)

Cosmos 2297 Rocket - Pass Details

Date: 02 June 2023
Orbit: 840 x 842 km, 71.0° (Epoch: 03 October)

Event Time Altitude Azimuth Distance (km) Brightness Sun altitude
Rises 13:53:51 0° 316° (NW) 3,386 6.5 -13.3°
Reaches altitude 10° 13:56:32 10° 306° (NW) 2,459 5.9 -13.9°
Maximum altitude 14:01:32 32° 243° (WSW) 1,420 3.8 -14.9°
Drops below altitude 10° 14:06:36 10° 180° (S) 2,484 4.5 -15.9°
Sets 14:09:20 0° 170° (S) 3,426 5.1 -16.5°
